Satellite: NO-44
Catalog number: 26931
Epoch time:      10132.73406181
Element set:    0458
Inclination:      067.0526 deg
RA of node:       295.3169 deg
Eccentricity:    0.0005672
Arg of perigee:   261.4914 deg
Mean anomaly:     098.5526 deg
Mean motion:   14.29597784 rev/day
Decay rate:       2.82e-06 rev/day^2
Epoch rev:           44968
Checksum:              335

Satellite: SO-50
Catalog number: 27607
Epoch time:      10132.46565068
Element set:    0173
Inclination:      064.5557 deg
RA of node:       105.0149 deg
Eccentricity:    0.0034424
Arg of perigee:   093.7356 deg
Mean anomaly:     266.7680 deg
Mean motion:   14.71536971 rev/day
Decay rate:        6.5e-07 rev/day^2
Epoch rev:           39712
Checksum:              310

Satellite: CO-55
Catalog number: 27844
Epoch time:      10132.59984214
Element set:     844
Inclination:      098.7092 deg
RA of node:       142.0848 deg
Eccentricity:    0.0009035
Arg of perigee:   277.5184 deg
Mean anomaly:     082.4968 deg
Mean motion:   14.20705830 rev/day
Decay rate:        9.7e-07 rev/day^2
Epoch rev:           35603
Checksum:              324

Satellite: CO-57
Catalog number: 27848
Epoch time:      10132.55379706
Element set:    0795
Inclination:      098.7137 deg
RA of node:       141.1278 deg
Eccentricity:    0.0008877
Arg of perigee:   281.7074 deg
Mean anomaly:     078.3119 deg
Mean motion:   14.20498496 rev/day
Decay rate:        8.5e-07 rev/day^2
Epoch rev:           35598
Checksum:              359

Satellite: AO-51
Catalog number: 28375
Epoch time:      10132.58924750
Element set:    0675
Inclination:      098.0614 deg
RA of node:       128.1158 deg
Eccentricity:    0.0082905
Arg of perigee:   205.0977 deg
Mean anomaly:     154.6175 deg
Mean motion:   14.40683652 rev/day
Decay rate:        3.8e-07 rev/day^2
Epoch rev:           30838
Checksum:              316

Satellite: GENESAT1
Catalog number: 29655
Epoch time:      10133.73244621
Element set:      53
Inclination:      040.0172 deg
RA of node:       252.7515 deg
Eccentricity:    0.0006732
Arg of perigee:   058.0158 deg
Mean anomaly:     302.1317 deg
Mean motion:   15.87138739 rev/day
Decay rate:     9.4518e-04 rev/day^2
Epoch rev:           19450
Checksum:              281

Satellite: CP3
Catalog number: 31129
Epoch time:      10133.76616855
Element set:     575
Inclination:      097.9414 deg
RA of node:       175.1717 deg
Eccentricity:    0.0102015
Arg of perigee:   341.5107 deg
Mean anomaly:     018.2391 deg
Mean motion:   14.52252583 rev/day
Decay rate:       2.04e-06 rev/day^2
Epoch rev:           16286
Checksum:              280

Satellite: CO-65
Catalog number: 32785
Epoch time:      10133.65520364
Element set:     679
Inclination:      097.8982 deg
RA of node:       199.0546 deg
Eccentricity:    0.0015754
Arg of perigee:   040.7734 deg
Mean anomaly:     319.4668 deg
Mean motion:   14.81647046 rev/day
Decay rate:      -1.03e-06 rev/day^2
Epoch rev:           11037
Checksum:              326

Satellite: KKS-1
Catalog number: 33493
Epoch time:      10133.72947331
Element set:     477
Inclination:      098.0818 deg
RA of node:       252.9344 deg
Eccentricity:    0.0018721
Arg of perigee:   251.9986 deg
Mean anomaly:     107.9188 deg
Mean motion:   14.80978536 rev/day
Decay rate:       5.98e-06 rev/day^2
Epoch rev:            7038
Checksum:              342

Satellite: SOHLA-1
Catalog number: 33496
Epoch time:      10133.77469135
Element set:     101
Inclination:      098.0545 deg
RA of node:       243.3001 deg
Eccentricity:    0.0005807
Arg of perigee:   320.7801 deg
Mean anomaly:     039.2979 deg
Mean motion:   14.69492100 rev/day
Decay rate:        7.3e-07 rev/day^2
Epoch rev:            6982
Checksum:              284

/EX
SB KEPS @ AMSAT  $ORB10133.W
Orbital Elements  10133.WEATHER

HR AMSAT ORBITAL ELEMENTS FOR WEATHER SATELLITES
FROM WA5QGD FORT WORTH,TX May 13, 2010
Send Subscribe/unsubscribe to KEPS at http://www.amsat.org/mailman/listinfo/kep
BID: ORB10133.W
TO ALL RADIO AMATEURS BT

Satellite: NOAA-10
Catalog number: 16969
Epoch time:      10133.38515050
Element set:      63
Inclination:      098.6593 deg
RA of node:       162.6759 deg
Eccentricity:    0.0011418
Arg of perigee:   316.9943 deg
Mean anomaly:     043.0350 deg
Mean motion:   14.27416206 rev/day
Decay rate:        8.9e-07 rev/day^2
Epoch rev:           23061
Checksum:              290

Satellite: NOAA-11
Catalog number: 19531
Epoch time:      10133.23654547
Element set:      76
Inclination:      098.7683 deg
RA of node:       222.8544 deg
Eccentricity:    0.0010669
Arg of perigee:   246.7274 deg
Mean anomaly:     113.2806 deg
Mean motion:   14.14924799 rev/day
Decay rate:        4.3e-07 rev/day^2
Epoch rev:           11619
Checksum:              307

Satellite: NOAA-12
Catalog number: 21263
Epoch time:      10133.32930896
Element set:     562
Inclination:      098.7657 deg
RA of node:       146.4931 deg
Eccentricity:    0.0011338
Arg of perigee:   268.7642 deg
Mean anomaly:     091.2239 deg
Mean motion:   14.25632516 rev/day
Decay rate:        5.9e-07 rev/day^2
Epoch rev:           98743
Checksum:              316

